Hourly Data Report for December 08, 2003

TORONTO CITY
ONTARIO

43°40'00.000" N
79°24'00.000" W
112.50 m
6158355
71508
XTO

Download Data

Hourly Data (December 2003)
Hourly Data Report for December 8, 2003
TIME
LST
Temp Definition
°C
Dew Point Definition
°C
Rel Hum Definition
%
Precip. Amount Definition
mm

Wind Dir Definition
10's deg

Wind Spd Definition
km/h
Visibility Definition
km
Stn Press Definition
kPa
Hmdx Definition


Wind Chill Definition


Weather Definition


00:00 -3.5 -9.2 65   LegendMM LegendMM LegendMM 100.73     LegendNANA
01:00 -3.6 -8.9 67   LegendMM LegendMM LegendMM 100.73     LegendNANA
02:00 -3.6 -10.3 60   LegendMM LegendMM LegendMM 100.73     LegendNANA
03:00 -3.7 -10.2 61   LegendMM LegendMM LegendMM 100.75     LegendNANA
04:00 -3.8 -9.9 63   LegendMM LegendMM LegendMM 100.77     LegendNANA
05:00 -4.1 -9.0 69   LegendMM LegendMM LegendMM 100.77     LegendNANA
06:00 -4.4 -10.3 63   LegendMM LegendMM LegendMM 100.80     LegendNANA
07:00 -4.7 -10.0 66   LegendMM LegendMM LegendMM 100.84     LegendNANA
08:00 -4.6 -9.3 70   LegendMM LegendMM LegendMM 100.87     LegendNANA
09:00 -3.2 -8.4 67   LegendMM LegendMM LegendMM 100.87     LegendNANA
10:00 -1.2 -8.1 59   LegendMM LegendMM LegendMM 100.89     LegendNANA
11:00 0.0 -8.3 54   LegendMM LegendMM LegendMM 100.86     LegendNANA
12:00 0.6 -7.3 55   LegendMM LegendMM LegendMM 100.82     LegendNANA
13:00 1.0 -6.4 58   LegendMM LegendMM LegendMM 100.78     LegendNANA
14:00 0.4 -6.1 62   LegendMM LegendMM LegendMM 100.73     LegendNANA
15:00 0.4 -6.3 61   LegendMM LegendMM LegendMM 100.74     LegendNANA
16:00 0.3 -6.2 62   LegendMM LegendMM LegendMM 100.74     LegendNANA
17:00 0.5 -6.0 62   LegendMM LegendMM LegendMM 100.76     LegendNANA
18:00 0.8 -5.1 65   LegendMM LegendMM LegendMM 100.78     LegendNANA
19:00 0.8 -4.3 69   LegendMM LegendMM LegendMM 100.77     LegendNANA
20:00 1.1 -4.2 68   LegendMM LegendMM LegendMM 100.77     LegendNANA
21:00 0.9 -3.7 71   LegendMM LegendMM LegendMM 100.76     LegendNANA
22:00 1.3 -3.1 72   LegendMM LegendMM LegendMM 100.77     LegendNANA
23:00 1.4 -2.6 75   LegendMM LegendMM LegendMM 100.76     LegendNANA

Notes on Data Quality.

Legend

  • E = Estimated
  • M = Missing
  • NA = Not Available*
  • [empty] = Indicates an unobserved value
Date modified: